| time (UTC) | temp F | wind direction | speed knots | gust knots | rain 1hr in | rain 24hr in | rain mn in | humidity % | barometer mb |
| 20260510060017 | 62 | 125 | 0.0 | 0.0 | 0.00 | 0.00 | 0.00 | 71 | 1014.3 |
| 20260510055514 | 63 | 125 | 0.0 | 0.0 | 0.00 | 0.00 | 0.00 | 70 | 1014.7 |
| 20260510055012 | 63 | 126 | 0.0 | 0.0 | 0.00 | 0.00 | 0.00 | 70 | 1014.2 |
| 20260510054507 | 63 | 118 | 0.0 | 0.0 | 0.00 | 0.00 | 0.00 | 69 | 1014.3 |
| 20260510054003 | 63 | 120 | 0.0 | 0.0 | 0.00 | 0.00 | 0.00 | 69 | 1014.2 |
| 20260510053457 | 63 | 125 | 0.0 | 0.0 | 0.00 | 0.00 | 0.00 | 69 | 1014.0 |
| 20260510052954 | 63 | 130 | 0.0 | 0.0 | 0.00 | 0.00 | 0.00 | 69 | 1014.1 |
| 20260510052450 | 64 | 132 | 0.0 | 0.0 | 0.00 | 0.00 | 0.00 | 69 | 1013.8 |
| 20260510051947 | 63 | 351 | 1.7 | 1.7 | 0.00 | 0.00 | 0.00 | 68 | 1013.7 |
| 20260510051442 | 62 | 130 | 0.0 | 0.0 | 0.00 | 0.00 | 0.00 | 70 | 1013.6 |
| 20260510050939 | 62 | 130 | 0.0 | 0.0 | 0.00 | 0.00 | 0.00 | 70 | 1014.0 |
| 20260510050436 | 61 | 124 | 0.0 | 0.0 | 0.00 | 0.00 | 0.00 | 72 | 1013.8 |
| 20260510045933 | 61 | 123 | 0.0 | 0.0 | 0.00 | 0.00 | 0.00 | 74 | 1013.8 |
| 20260510045431 | 61 | 123 | 0.0 | 0.0 | 0.00 | 0.00 | 0.00 | 76 | 1013.6 |
| 20260510044927 | 61 | 126 | 0.0 | 0.0 | 0.00 | 0.00 | 0.00 | 76 | 1013.4 |
| 20260510044424 | 61 | 127 | 0.0 | 0.0 | 0.00 | 0.00 | 0.00 | 76 | 1013.6 |
| 20260510043921 | 61 | 127 | 0.0 | 0.0 | 0.00 | 0.00 | 0.00 | 76 | 1013.4 |
| 20260510043417 | 61 | 127 | 0.0 | 0.0 | 0.00 | 0.00 | 0.00 | 75 | 1013.5 |
| 20260510042915 | 62 | 127 | 0.0 | 0.0 | 0.00 | 0.00 | 0.00 | 75 | 1013.4 |
| 20260510042411 | 62 | 127 | 0.0 | 0.0 | 0.00 | 0.00 | 0.00 | 75 | 1013.3 |
| 20260510041906 | 62 | 127 | 0.0 | 0.0 | 0.00 | 0.00 | 0.00 | 75 | 1013.7 |
| 20260510041404 | 62 | 127 | 0.0 | 0.0 | 0.00 | 0.00 | 0.00 | 76 | 1013.7 |
| 20260510040901 | 62 | 127 | 0.0 | 0.0 | 0.00 | 0.00 | 0.00 | 76 | 1014.1 |
| 20260510040358 | 62 | 127 | 0.0 | 0.0 | 0.00 | 0.00 | 0.00 | 76 | 1013.8 |
| 20260510035854 | 62 | 127 | 0.0 | 0.0 | 0.00 | 0.00 | 0.00 | 76 | 1013.7 |
| 20260510035350 | 62 | 126 | 0.0 | 0.0 | 0.00 | 0.00 | 0.00 | 76 | 1013.2 |
| 20260510034845 | 62 | 126 | 0.0 | 0.0 | 0.00 | 0.00 | 0.00 | 76 | 1013.2 |
| 20260510034343 | 63 | 126 | 0.0 | 0.0 | 0.00 | 0.00 | 0.00 | 74 | 1013.3 |
| 20260510033839 | 63 | 126 | 0.0 | 0.0 | 0.00 | 0.00 | 0.00 | 74 | 1013.3 |
| 20260510033336 | 63 | 126 | 0.0 | 0.0 | 0.00 | 0.00 | 0.00 | 74 | 1013.1 |
| 20260510032833 | 63 | 126 | 0.0 | 0.0 | 0.00 | 0.00 | 0.00 | 73 | 1012.9 |
| 20260510032330 | 64 | 126 | 0.0 | 0.0 | 0.00 | 0.00 | 0.00 | 73 | 1013.0 |
| 20260510031825 | 64 | 125 | 0.0 | 0.0 | 0.00 | 0.00 | 0.00 | 73 | 1012.8 |
| 20260510031321 | 64 | 126 | 0.0 | 0.0 | 0.00 | 0.00 | 0.00 | 72 | 1012.6 |
| 20260510030815 | 65 | 126 | 0.0 | 0.0 | 0.00 | 0.00 | 0.00 | 70 | 1012.6 |
| 20260510030312 | 65 | 125 | 0.0 | 0.0 | 0.00 | 0.00 | 0.00 | 70 | 1012.6 |
| 20260510025809 | 66 | 125 | 0.0 | 0.0 | 0.00 | 0.00 | 0.00 | 67 | 1012.5 |
| 20260510025307 | 66 | 123 | 0.0 | 0.0 | 0.00 | 0.00 | 0.00 | 67 | 1012.8 |
| 20260510024803 | 66 | 301 | 0.0 | 0.0 | 0.00 | 0.00 | 0.00 | 66 | 1012.7 |
| 20260510024300 | 66 | 136 | 0.0 | 0.0 | 0.00 | 0.00 | 0.00 | 67 | 1012.7 |
| 20260510023756 | 67 | 131 | 0.0 | 0.0 | 0.00 | 0.00 | 0.00 | 68 | 1012.6 |
| 20260510023253 | 67 | 123 | 0.0 | 0.0 | 0.00 | 0.00 | 0.00 | 67 | 1012.7 |
| 20260510022750 | 68 | 129 | 0.0 | 0.0 | 0.00 | 0.00 | 0.00 | 67 | 1013.3 |
| 20260510022250 | 68 | 161 | 0.9 | 1.7 | 0.00 | 0.00 | 0.00 | 65 | 1013.5 |
| 20260510021749 | 68 | 186 | 2.6 | 2.6 | 0.00 | 0.00 | 0.00 | 63 | 1013.0 |
| 20260510021247 | 66 | 129 | 0.0 | 0.0 | 0.00 | 0.00 | 0.00 | 75 | 1013.3 |
| 20260510020743 | 67 | 70 | 0.9 | 1.7 | 0.00 | 0.00 | 0.00 | 67 | 1013.5 |
| 20260510020242 | 67 | 116 | 0.0 | 0.0 | 0.00 | 0.00 | 0.00 | 69 | 1013.3 |
| 20260510015739 | 70 | 111 | 0.0 | 0.9 | 0.00 | 0.00 | 0.00 | 68 | 1013.1 |
| 20260510015235 | 72 | 119 | 0.0 | 0.0 | 0.00 | 0.00 | 0.00 | 55 | 1012.8 |
| 20260510014730 | 73 | 135 | 0.0 | 0.0 | 0.00 | 0.00 | 0.00 | 51 | 1013.3 |
| 20260510014228 | 75 | 241 | 3.5 | 5.2 | 0.00 | 0.00 | 0.00 | 44 | 1013.5 |
| 20260510013724 | 77 | 123 | 0.0 | 0.9 | 0.00 | 0.00 | 0.00 | 40 | 1013.4 |
| 20260510013219 | 77 | 189 | 4.3 | 6.1 | 0.00 | 0.00 | 0.00 | 36 | 1013.3 |
| 20260510012719 | 77 | 71 | 1.7 | 2.6 | 0.00 | 0.00 | 0.00 | 39 | 1012.8 |
| 20260510012215 | 76 | 127 | 0.9 | 1.7 | 0.00 | 0.00 | 0.00 | 38 | 1012.4 |
| 20260510011709 | 76 | 143 | 0.0 | 0.0 | 0.00 | 0.00 | 0.00 | 38 | 1012.3 |
| 20260510011205 | 77 | 138 | 0.0 | 0.0 | 0.00 | 0.00 | 0.00 | 37 | 1011.8 |
| 20260510010702 | 77 | 134 | 0.0 | 0.0 | 0.00 | 0.00 | 0.00 | 36 | 1011.3 |
| 20260510010158 | 77 | 136 | 0.0 | 0.0 | 0.00 | 0.00 | 0.00 | 36 | 1010.9 |
| 20260510005655 | 77 | 127 | 0.0 | 0.0 | 0.00 | 0.00 | 0.00 | 35 | 1010.9 |
| 20260510005151 | 78 | 128 | 0.0 | 0.0 | 0.00 | 0.00 | 0.00 | 34 | 1010.3 |
| 20260510004650 | 78 | 126 | 0.0 | 0.0 | 0.00 | 0.00 | 0.00 | 33 | 1010.2 |
| 20260510004148 | 78 | 116 | 1.7 | 1.7 | 0.00 | 0.00 | 0.00 | 32 | 1009.8 |
| 20260510003645 | 79 | 132 | 0.0 | 0.0 | 0.00 | 0.00 | 0.00 | 32 | 1009.7 |
| 20260510003140 | 79 | 123 | 0.0 | 0.0 | 0.00 | 0.00 | 0.00 | 33 | 1009.5 |
| 20260510002635 | 80 | 122 | 0.0 | 0.0 | 0.00 | 0.00 | 0.00 | 30 | 1009.2 |
| 20260510002132 | 80 | 125 | 0.0 | 0.0 | 0.00 | 0.00 | 0.00 | 29 | 1009.1 |
| 20260510001629 | 81 | 126 | 0.0 | 0.0 | 0.00 | 0.00 | 0.00 | 29 | 1009.2 |
| 20260510001128 | 81 | 131 | 0.0 | 0.0 | 0.00 | 0.00 | 0.00 | 28 | 1009.1 |
| 20260510000627 | 82 | 127 | 0.0 | 0.0 | 0.00 | 0.00 | 0.00 | 28 | 1009.2 |
| 20260510000126 | 82 | 124 | 0.0 | 0.0 | 0.00 | 0.00 | 0.00 | 28 | 1009.3 |
| 20260509235621 | 83 | 124 | 0.0 | 0.9 | 0.00 | 0.00 | 0.00 | 27 | 1009.0 |
| 20260509235118 | 84 | 126 | 0.0 | 0.0 | 0.00 | 0.00 | 0.00 | 26 | 1009.2 |
| 20260509234614 | 87 | 131 | 0.0 | 0.0 | 0.00 | 0.00 | 0.00 | 24 | 1008.9 |
| 20260509234113 | 87 | 62 | 0.0 | 0.9 | 0.00 | 0.00 | 0.00 | 23 | 1009.1 |
| 20260509233610 | 87 | 156 | 1.7 | 1.7 | 0.00 | 0.00 | 0.00 | 23 | 1009.1 |
| 20260509233107 | 86 | 157 | 2.6 | 2.6 | 0.00 | 0.00 | 0.00 | 23 | 1009.5 |
| 20260509232603 | 88 | 141 | 0.0 | 0.0 | 0.00 | 0.00 | 0.00 | 23 | 1009.5 |
| 20260509232100 | 89 | 226 | 2.6 | 4.3 | 0.00 | 0.00 | 0.00 | 21 | 1009.3 |
| 20260509231556 | 90 | 147 | 0.0 | 0.0 | 0.00 | 0.00 | 0.00 | 24 | 1009.6 |
| 20260509231054 | 89 | 134 | 0.0 | 0.0 | 0.00 | 0.00 | 0.00 | 22 | 1009.6 |
| 20260509230551 | 89 | 166 | 1.7 | 1.7 | 0.00 | 0.00 | 0.00 | 21 | 1009.6 |
| 20260509230048 | 89 | 233 | 0.9 | 1.7 | 0.00 | 0.00 | 0.00 | 21 | 1009.9 |
| 20260509225549 | 90 | 127 | 0.9 | 0.9 | 0.00 | 0.00 | 0.00 | 22 | 1009.9 |
| 20260509225044 | 89 | 138 | 0.0 | 0.9 | 0.00 | 0.00 | 0.00 | 22 | 1009.3 |
| 20260509224540 | 89 | 155 | 0.0 | 0.9 | 0.00 | 0.00 | 0.00 | 22 | 1009.7 |
| 20260509224037 | 88 | 133 | 0.9 | 0.9 | 0.00 | 0.00 | 0.00 | 23 | 1009.5 |
| 20260509223534 | 87 | 136 | 0.0 | 0.0 | 0.00 | 0.00 | 0.00 | 23 | 1009.3 |
| 20260509223032 | 89 | 112 | 0.9 | 0.9 | 0.00 | 0.00 | 0.00 | 22 | 1009.8 |
| 20260509222528 | 89 | 254 | 1.7 | 2.6 | 0.00 | 0.00 | 0.00 | 21 | 1009.5 |
| 20260509222023 | 91 | 152 | 0.9 | 1.7 | 0.00 | 0.00 | 0.00 | 22 | 1009.6 |
| 20260509221520 | 91 | 151 | 0.0 | 0.0 | 0.00 | 0.00 | 0.00 | 21 | 1009.5 |
| 20260509221016 | 91 | 118 | 0.9 | 0.9 | 0.00 | 0.00 | 0.00 | 21 | 1009.6 |
| 20260509220512 | 91 | 126 | 0.0 | 0.0 | 0.00 | 0.00 | 0.00 | 21 | 1009.2 |
| 20260509220008 | 90 | 142 | 1.7 | 2.6 | 0.00 | 0.00 | 0.00 | 22 | 1009.6 |
| 20260509215503 | 90 | 131 | 0.0 | 0.9 | 0.00 | 0.00 | 0.00 | 22 | 1009.6 |
| 20260509215001 | 91 | 196 | 0.9 | 1.7 | 0.00 | 0.00 | 0.00 | 21 | 1009.7 |
| 20260509214458 | 89 | 126 | 0.9 | 0.9 | 0.00 | 0.00 | 0.00 | 20 | 1009.2 |
| 20260509213955 | 89 | 226 | 1.7 | 2.6 | 0.00 | 0.00 | 0.00 | 20 | 1009.3 |
| 20260509213451 | 89 | 201 | 2.6 | 2.6 | 0.00 | 0.00 | 0.00 | 20 | 1009.1 |
| 20260509212948 | 90 | 193 | 1.7 | 1.7 | 0.00 | 0.00 | 0.00 | 21 | 1009.5 |
| 20260509212445 | 89 | 204 | 1.7 | 1.7 | 0.00 | 0.00 | 0.00 | 21 | 1009.6 |
| 20260509211941 | 89 | 167 | 0.9 | 0.9 | 0.00 | 0.00 | 0.00 | 20 | 1009.6 |
| 20260509211437 | 90 | 164 | 2.6 | 5.2 | 0.00 | 0.00 | 0.00 | 21 | 1009.8 |
| 20260509210934 | 91 | 135 | 0.9 | 0.9 | 0.00 | 0.00 | 0.00 | 22 | 1009.9 |
| 20260509210431 | 90 | 135 | 0.0 | 0.0 | 0.00 | 0.00 | 0.00 | 23 | 1010.1 |
| 20260509205926 | 90 | 168 | 1.7 | 2.6 | 0.00 | 0.00 | 0.00 | 20 | 1009.9 |
| 20260509205421 | 90 | 146 | 0.0 | 0.9 | 0.00 | 0.00 | 0.00 | 20 | 1009.9 |
| 20260509204917 | 90 | 137 | 0.0 | 0.9 | 0.00 | 0.00 | 0.00 | 20 | 1010.3 |
| 20260509204414 | 88 | 113 | 0.0 | 0.0 | 0.00 | 0.00 | 0.00 | 21 | 1010.1 |
| 20260509203910 | 90 | 180 | 1.7 | 2.6 | 0.00 | 0.00 | 0.00 | 20 | 1010.3 |
| 20260509203406 | 89 | 138 | 0.9 | 0.9 | 0.00 | 0.00 | 0.00 | 22 | 1010.3 |
| 20260509202904 | 91 | 201 | 1.7 | 1.7 | 0.00 | 0.00 | 0.00 | 20 | 1010.3 |
| 20260509202359 | 89 | 172 | 0.9 | 0.9 | 0.00 | 0.00 | 0.00 | 23 | 1010.4 |
| 20260509201855 | 88 | 147 | 0.9 | 1.7 | 0.00 | 0.00 | 0.00 | 23 | 1010.7 |
| 20260509201350 | 87 | 131 | 0.0 | 0.0 | 0.00 | 0.00 | 0.00 | 24 | 1010.5 |
| 20260509200848 | 88 | 117 | 0.0 | 0.0 | 0.00 | 0.00 | 0.00 | 24 | 1010.5 |
| 20260509200342 | 88 | 158 | 0.9 | 1.7 | 0.00 | 0.00 | 0.00 | 23 | 1010.5 |
| 20260509195839 | 88 | 269 | 1.7 | 1.7 | 0.00 | 0.00 | 0.00 | 21 | 1010.6 |
| 20260509195334 | 89 | 134 | 0.9 | 1.7 | 0.00 | 0.00 | 0.00 | 22 | 1010.8 |
| 20260509194834 | 88 | 134 | 0.0 | 0.9 | 0.00 | 0.00 | 0.00 | 22 | 1010.7 |
| 20260509194330 | 88 | 203 | 0.9 | 1.7 | 0.00 | 0.00 | 0.00 | 22 | 1010.8 |
| 20260509193827 | 88 | 282 | 3.5 | 4.3 | 0.00 | 0.00 | 0.00 | 22 | 1010.8 |
| 20260509193321 | 88 | 187 | 0.9 | 0.9 | 0.00 | 0.00 | 0.00 | 23 | 1011.0 |
| 20260509192817 | 87 | 129 | 0.0 | 0.0 | 0.00 | 0.00 | 0.00 | 24 | 1011.0 |
| 20260509192314 | 87 | 135 | 0.0 | 0.0 | 0.00 | 0.00 | 0.00 | 24 | 1011.0 |
| 20260509191809 | 87 | 130 | 0.0 | 0.0 | 0.00 | 0.00 | 0.00 | 24 | 1011.0 |
| 20260509191305 | 88 | 231 | 1.7 | 1.7 | 0.00 | 0.00 | 0.00 | 23 | 1011.0 |
| 20260509190801 | 88 | 110 | 2.6 | 2.6 | 0.00 | 0.00 | 0.00 | 22 | 1011.1 |
| 20260509190258 | 88 | 193 | 1.7 | 2.6 | 0.00 | 0.00 | 0.00 | 22 | 1011.1 |
| 20260509185755 | 87 | 205 | 0.9 | 0.9 | 0.00 | 0.00 | 0.00 | 22 | 1011.2 |
| 20260509185251 | 87 | 241 | 2.6 | 2.6 | 0.00 | 0.00 | 0.00 | 23 | 1011.2 |
| 20260509184749 | 86 | 177 | 2.6 | 2.6 | 0.00 | 0.00 | 0.00 | 23 | 1011.3 |
| 20260509184247 | 86 | 357 | 0.9 | 1.7 | 0.00 | 0.00 | 0.00 | 25 | 1011.5 |
| 20260509183743 | 86 | 117 | 0.9 | 0.9 | 0.00 | 0.00 | 0.00 | 25 | 1011.5 |
| 20260509183238 | 87 | 256 | 2.6 | 2.6 | 0.00 | 0.00 | 0.00 | 25 | 1011.6 |
| 20260509182734 | 86 | 138 | 0.0 | 0.0 | 0.00 | 0.00 | 0.00 | 25 | 1011.5 |
| 20260509182232 | 85 | 224 | 1.7 | 4.3 | 0.00 | 0.00 | 0.00 | 25 | 1011.7 |
| 20260509181729 | 85 | 235 | 2.6 | 2.6 | 0.00 | 0.00 | 0.00 | 25 | 1011.8 |
| 20260509181226 | 87 | 352 | 3.5 | 5.2 | 0.00 | 0.00 | 0.00 | 25 | 1011.6 |
| 20260509180723 | 86 | 242 | 0.9 | 0.9 | 0.00 | 0.00 | 0.00 | 25 | 1012.0 |
| 20260509180220 | 84 | 194 | 1.7 | 1.7 | 0.00 | 0.00 | 0.00 | 26 | 1012.2 |
| 20260509175716 | 84 | 213 | 2.6 | 4.3 | 0.00 | 0.00 | 0.00 | 25 | 1012.3 |
| 20260509175212 | 86 | 286 | 4.3 | 7.0 | 0.00 | 0.00 | 0.00 | 26 | 1012.3 |
| 20260509174708 | 85 | 204 | 1.7 | 2.6 | 0.00 | 0.00 | 0.00 | 26 | 1012.1 |
| 20260509174204 | 85 | 199 | 2.6 | 4.3 | 0.00 | 0.00 | 0.00 | 27 | 1012.4 |
| 20260509173700 | 85 | 255 | 4.3 | 5.2 | 0.00 | 0.00 | 0.00 | 25 | 1012.4 |
| 20260509173155 | 85 | 160 | 1.7 | 1.7 | 0.00 | 0.00 | 0.00 | 26 | 1012.4 |
| 20260509172652 | 84 | 222 | 3.5 | 4.3 | 0.00 | 0.00 | 0.00 | 27 | 1012.5 |
| 20260509172148 | 85 | 144 | 0.9 | 2.6 | 0.00 | 0.00 | 0.00 | 27 | 1012.5 |
| 20260509171643 | 84 | 173 | 4.3 | 7.0 | 0.00 | 0.00 | 0.00 | 26 | 1012.7 |
| 20260509171140 | 84 | 206 | 1.7 | 2.6 | 0.00 | 0.00 | 0.00 | 27 | 1012.8 |
| 20260509170638 | 83 | 235 | 1.7 | 4.3 | 0.00 | 0.00 | 0.00 | 28 | 1012.9 |
| 20260509170133 | 83 | 255 | 2.6 | 4.3 | 0.00 | 0.00 | 0.00 | 28 | 1012.8 |
| 20260509165631 | 84 | 253 | 3.5 | 4.3 | 0.00 | 0.00 | 0.00 | 28 | 1012.9 |
| 20260509165127 | 82 | 21 | 1.7 | 2.6 | 0.00 | 0.00 | 0.00 | 29 | 1012.9 |
| 20260509164624 | 84 | 235 | 3.5 | 5.2 | 0.00 | 0.00 | 0.00 | 28 | 1012.9 |
| 20260509164120 | 84 | 174 | 3.5 | 5.2 | 0.00 | 0.00 | 0.00 | 29 | 1013.1 |
| 20260509163617 | 83 | 292 | 2.6 | 2.6 | 0.00 | 0.00 | 0.00 | 30 | 1012.9 |
| 20260509163113 | 83 | 189 | 0.9 | 2.6 | 0.00 | 0.00 | 0.00 | 31 | 1012.8 |
| 20260509162610 | 82 | 198 | 1.7 | 1.7 | 0.00 | 0.00 | 0.00 | 31 | 1013.0 |
| 20260509162105 | 81 | 223 | 1.7 | 2.6 | 0.00 | 0.00 | 0.00 | 32 | 1013.0 |
| 20260509161557 | 81 | 221 | 2.6 | 5.2 | 0.00 | 0.00 | 0.00 | 32 | 1012.9 |
| 20260509161057 | 82 | 201 | 2.6 | 2.6 | 0.00 | 0.00 | 0.00 | 32 | 1012.9 |
| 20260509160553 | 81 | 239 | 1.7 | 1.7 | 0.00 | 0.00 | 0.00 | 34 | 1012.8 |
| 20260509160048 | 80 | 126 | 0.9 | 1.7 | 0.00 | 0.00 | 0.00 | 33 | 1013.0 |
| 20260509155545 | 80 | 50 | 0.9 | 1.7 | 0.00 | 0.00 | 0.00 | 35 | 1012.8 |
| 20260509155041 | 80 | 120 | 2.6 | 4.3 | 0.00 | 0.00 | 0.00 | 35 | 1012.8 |
| 20260509154537 | 80 | 184 | 2.6 | 2.6 | 0.00 | 0.00 | 0.00 | 36 | 1012.8 |
| 20260509154035 | 80 | 167 | 2.6 | 2.6 | 0.00 | 0.00 | 0.00 | 36 | 1012.9 |
| 20260509153532 | 79 | 218 | 0.9 | 1.7 | 0.00 | 0.00 | 0.00 | 38 | 1012.8 |
| 20260509153029 | 78 | 161 | 2.6 | 2.6 | 0.00 | 0.00 | 0.00 | 40 | 1012.9 |
| 20260509152524 | 77 | 189 | 2.6 | 2.6 | 0.00 | 0.00 | 0.00 | 41 | 1012.8 |
| 20260509152021 | 76 | 219 | 2.6 | 4.3 | 0.00 | 0.00 | 0.00 | 45 | 1013.0 |
| 20260509151518 | 74 | 217 | 0.9 | 1.7 | 0.00 | 0.00 | 0.00 | 50 | 1012.9 |
| 20260509151016 | 75 | 201 | 2.6 | 2.6 | 0.00 | 0.00 | 0.00 | 50 | 1012.9 |
| 20260509150513 | 75 | 134 | 0.9 | 1.7 | 0.00 | 0.00 | 0.00 | 50 | 1013.0 |
| 20260509150012 | 74 | 280 | 2.6 | 2.6 | 0.00 | 0.00 | 0.00 | 51 | 1012.8 |
| 20260509145507 | 72 | 229 | 0.9 | 1.7 | 0.00 | 0.00 | 0.00 | 54 | 1012.8 |
| 20260509145002 | 72 | 199 | 0.9 | 1.7 | 0.00 | 0.00 | 0.00 | 55 | 1012.8 |
| 20260509144459 | 72 | 136 | 0.0 | 0.0 | 0.00 | 0.00 | 0.00 | 55 | 1012.7 |
| 20260509143956 | 72 | 145 | 0.0 | 0.0 | 0.00 | 0.00 | 0.00 | 56 | 1012.6 |
| 20260509143453 | 72 | 276 | 1.7 | 1.7 | 0.00 | 0.00 | 0.00 | 54 | 1012.5 |
| 20260509142950 | 72 | 166 | 1.7 | 1.7 | 0.00 | 0.00 | 0.00 | 53 | 1012.6 |
| 20260509142446 | 71 | 175 | 0.9 | 0.9 | 0.00 | 0.00 | 0.00 | 56 | 1012.6 |
| 20260509141942 | 70 | 154 | 0.9 | 1.7 | 0.00 | 0.00 | 0.00 | 57 | 1012.7 |
| 20260509141438 | 69 | 251 | 2.6 | 6.1 | 0.00 | 0.00 | 0.00 | 58 | 1012.5 |
| 20260509140935 | 69 | 157 | 0.9 | 0.9 | 0.00 | 0.00 | 0.00 | 59 | 1012.5 |
| 20260509140431 | 68 | 172 | 0.9 | 1.7 | 0.00 | 0.00 | 0.00 | 61 | 1012.8 |
| 20260509135930 | 68 | 213 | 3.5 | 4.3 | 0.00 | 0.00 | 0.00 | 60 | 1012.6 |
| 20260509135427 | 67 | 179 | 0.9 | 1.7 | 0.00 | 0.00 | 0.00 | 62 | 1012.5 |
| 20260509134925 | 66 | 181 | 2.6 | 4.3 | 0.00 | 0.00 | 0.00 | 63 | 1012.5 |
| 20260509134422 | 65 | 139 | 0.9 | 0.9 | 0.00 | 0.00 | 0.00 | 65 | 1012.5 |
| 20260509133919 | 64 | 156 | 0.9 | 0.9 | 0.00 | 0.00 | 0.00 | 67 | 1012.3 |
| 20260509133415 | 63 | 200 | 2.6 | 2.6 | 0.00 | 0.00 | 0.00 | 68 | 1012.5 |
| 20260509132914 | 62 | 149 | 0.0 | 0.0 | 0.00 | 0.00 | 0.00 | 70 | 1012.4 |
| 20260509132412 | 61 | 192 | 0.9 | 1.7 | 0.00 | 0.00 | 0.00 | 71 | 1012.5 |
| 20260509131908 | 61 | 152 | 0.0 | 0.0 | 0.00 | 0.00 | 0.00 | 73 | 1012.7 |
| 20260509131406 | 60 | 277 | 0.9 | 1.7 | 0.00 | 0.00 | 0.00 | 75 | 1013.1 |
| 20260509130902 | 59 | 188 | 0.9 | 1.7 | 0.00 | 0.00 | 0.00 | 76 | 1012.8 |
| 20260509130357 | 59 | 149 | 0.0 | 0.0 | 0.00 | 0.00 | 0.00 | 77 | 1012.7 |
| 20260509125855 | 57 | 190 | 1.7 | 1.7 | 0.00 | 0.00 | 0.00 | 77 | 1012.8 |
| 20260509125351 | 57 | 144 | 0.0 | 0.0 | 0.00 | 0.00 | 0.00 | 78 | 1012.8 |
| 20260509124847 | 56 | 182 | 0.0 | 0.0 | 0.00 | 0.00 | 0.00 | 79 | 1012.7 |
| 20260509124344 | 55 | 160 | 0.0 | 0.0 | 0.00 | 0.00 | 0.00 | 79 | 1012.6 |
| 20260509123842 | 55 | 159 | 0.0 | 0.0 | 0.00 | 0.00 | 0.00 | 81 | 1012.4 |
| 20260509123339 | 54 | 140 | 0.0 | 0.0 | 0.00 | 0.00 | 0.00 | 82 | 1012.6 |
| 20260509122835 | 54 | 142 | 0.0 | 0.0 | 0.00 | 0.00 | 0.00 | 82 | 1012.4 |
| 20260509122332 | 54 | 144 | 0.0 | 0.0 | 0.00 | 0.00 | 0.00 | 82 | 1012.3 |
| 20260509121829 | 54 | 145 | 0.0 | 0.0 | 0.00 | 0.00 | 0.00 | 82 | 1012.3 |
| 20260509121326 | 54 | 147 | 0.0 | 0.0 | 0.00 | 0.00 | 0.00 | 81 | 1012.1 |
| 20260509120824 | 54 | 154 | 0.0 | 0.0 | 0.00 | 0.00 | 0.00 | 81 | 1012.1 |
| 20260509120322 | 53 | 158 | 0.0 | 0.0 | 0.00 | 0.00 | 0.00 | 81 | 1012.1 |
| 20260509115820 | 53 | 165 | 0.0 | 0.0 | 0.00 | 0.00 | 0.00 | 81 | 1012.1 |
| 20260509115316 | 53 | 192 | 0.0 | 0.0 | 0.00 | 0.00 | 0.00 | 82 | 1012.1 |
| 20260509114814 | 52 | 153 | 0.0 | 0.0 | 0.00 | 0.00 | 0.00 | 83 | 1012.2 |
| 20260509114313 | 52 | 137 | 0.0 | 0.0 | 0.00 | 0.00 | 0.00 | 83 | 1012.2 |
| 20260509113812 | 52 | 146 | 0.0 | 0.0 | 0.00 | 0.00 | 0.00 | 83 | 1011.8 |
| 20260509113308 | 52 | 151 | 0.0 | 0.0 | 0.00 | 0.00 | 0.00 | 82 | 1012.0 |
| 20260509112805 | 52 | 160 | 0.9 | 0.9 | 0.00 | 0.00 | 0.00 | 83 | 1011.8 |
| 20260509112306 | 52 | 151 | 0.0 | 0.0 | 0.00 | 0.00 | 0.00 | 83 | 1011.7 |
| 20260509111759 | 52 | 144 | 0.0 | 0.0 | 0.00 | 0.00 | 0.00 | 83 | 1011.7 |
| 20260509111256 | 52 | 144 | 0.0 | 0.0 | 0.00 | 0.00 | 0.00 | 83 | 1011.6 |
| 20260509110753 | 52 | 145 | 0.0 | 0.0 | 0.00 | 0.00 | 0.00 | 83 | 1011.6 |
| 20260509110249 | 52 | 144 | 0.0 | 0.0 | 0.00 | 0.00 | 0.00 | 83 | 1011.6 |
| 20260509105748 | 52 | 144 | 0.0 | 0.0 | 0.00 | 0.00 | 0.00 | 83 | 1011.7 |
| 20260509105245 | 52 | 145 | 0.0 | 0.0 | 0.00 | 0.00 | 0.00 | 82 | 1011.5 |
| 20260509104742 | 52 | 145 | 0.0 | 0.0 | 0.00 | 0.00 | 0.00 | 82 | 1011.7 |
| 20260509104239 | 52 | 145 | 0.0 | 0.0 | 0.00 | 0.00 | 0.00 | 83 | 1011.6 |
| 20260509103737 | 52 | 146 | 0.0 | 0.0 | 0.00 | 0.00 | 0.00 | 82 | 1011.6 |
| 20260509103234 | 52 | 149 | 0.0 | 0.0 | 0.00 | 0.00 | 0.00 | 82 | 1011.8 |
| 20260509102732 | 52 | 157 | 0.0 | 0.0 | 0.00 | 0.00 | 0.00 | 82 | 1011.8 |
| 20260509102229 | 52 | 155 | 0.0 | 0.0 | 0.00 | 0.00 | 0.00 | 82 | 1011.8 |
| 20260509101725 | 52 | 151 | 0.0 | 0.0 | 0.00 | 0.00 | 0.00 | 82 | 1012.0 |
| 20260509101221 | 52 | 147 | 0.0 | 0.0 | 0.00 | 0.00 | 0.00 | 81 | 1012.1 |
| 20260509100719 | 52 | 150 | 0.0 | 0.0 | 0.00 | 0.00 | 0.00 | 81 | 1011.8 |
| 20260509100216 | 53 | 156 | 0.0 | 0.0 | 0.00 | 0.00 | 0.00 | 80 | 1011.8 |
| 20260509095713 | 52 | 195 | 0.0 | 0.0 | 0.00 | 0.00 | 0.00 | 80 | 1012.2 |
| 20260509095210 | 53 | 153 | 0.0 | 0.0 | 0.00 | 0.00 | 0.00 | 80 | 1012.1 |
| 20260509094707 | 53 | 146 | 0.0 | 0.0 | 0.00 | 0.00 | 0.00 | 80 | 1012.2 |
| 20260509094204 | 53 | 147 | 0.0 | 0.0 | 0.00 | 0.00 | 0.00 | 79 | 1012.0 |
| 20260509093702 | 53 | 171 | 0.0 | 0.0 | 0.00 | 0.00 | 0.00 | 79 | 1012.2 |
| 20260509093159 | 53 | 171 | 0.9 | 0.9 | 0.00 | 0.00 | 0.00 | 79 | 1012.0 |
| 20260509092657 | 53 | 152 | 0.0 | 0.0 | 0.00 | 0.00 | 0.00 | 79 | 1012.1 |
| 20260509092155 | 53 | 168 | 0.0 | 0.0 | 0.00 | 0.00 | 0.00 | 79 | 1011.7 |
| 20260509091653 | 53 | 177 | 0.0 | 0.0 | 0.00 | 0.00 | 0.00 | 78 | 1011.8 |
| 20260509091148 | 53 | 154 | 0.0 | 0.0 | 0.00 | 0.00 | 0.00 | 77 | 1012.0 |
| 20260509090646 | 53 | 150 | 0.0 | 0.0 | 0.00 | 0.00 | 0.00 | 77 | 1012.0 |
| 20260509090143 | 53 | 162 | 0.0 | 0.0 | 0.00 | 0.00 | 0.00 | 77 | 1012.0 |
| 20260509085641 | 53 | 172 | 0.0 | 0.9 | 0.00 | 0.00 | 0.00 | 76 | 1012.2 |
| 20260509085137 | 53 | 162 | 0.0 | 0.9 | 0.00 | 0.00 | 0.00 | 76 | 1012.0 |
| 20260509084634 | 53 | 187 | 0.9 | 1.7 | 0.00 | 0.00 | 0.00 | 76 | 1012.2 |
| 20260509084131 | 53 | 183 | 0.9 | 0.9 | 0.00 | 0.00 | 0.00 | 77 | 1012.1 |
| 20260509083629 | 53 | 148 | 0.0 | 0.0 | 0.00 | 0.00 | 0.00 | 78 | 1012.1 |
| 20260509083125 | 53 | 150 | 0.0 | 0.0 | 0.00 | 0.00 | 0.00 | 78 | 1012.1 |
| 20260509082623 | 53 | 149 | 0.0 | 0.0 | 0.00 | 0.00 | 0.00 | 78 | 1012.3 |
| 20260509082119 | 53 | 153 | 0.0 | 0.0 | 0.00 | 0.00 | 0.00 | 77 | 1012.2 |
| 20260509081616 | 53 | 204 | 0.9 | 0.9 | 0.00 | 0.00 | 0.00 | 77 | 1012.1 |
| 20260509081113 | 53 | 197 | 0.0 | 0.0 | 0.00 | 0.00 | 0.00 | 76 | 1012.2 |
| 20260509080612 | 53 | 165 | 0.0 | 0.0 | 0.00 | 0.00 | 0.00 | 76 | 1012.2 |
| 20260509080109 | 54 | 188 | 0.0 | 0.0 | 0.00 | 0.00 | 0.00 | 76 | 1012.3 |
| 20260509075607 | 54 | 176 | 0.0 | 0.0 | 0.00 | 0.00 | 0.00 | 75 | 1012.2 |
| 20260509075104 | 54 | 166 | 0.0 | 0.0 | 0.00 | 0.00 | 0.00 | 75 | 1012.3 |
| 20260509074601 | 54 | 172 | 0.0 | 0.9 | 0.00 | 0.00 | 0.00 | 74 | 1012.2 |
| 20260509074057 | 55 | 151 | 0.0 | 0.0 | 0.00 | 0.00 | 0.00 | 74 | 1012.1 |
| 20260509073554 | 55 | 164 | 0.9 | 0.9 | 0.00 | 0.00 | 0.00 | 73 | 1012.3 |
| 20260509073050 | 55 | 201 | 0.9 | 0.9 | 0.00 | 0.00 | 0.00 | 72 | 1012.3 |
| 20260509072547 | 55 | 174 | 0.0 | 0.9 | 0.00 | 0.00 | 0.00 | 72 | 1012.3 |
| 20260509072044 | 55 | 172 | 1.7 | 2.6 | 0.00 | 0.00 | 0.00 | 71 | 1012.3 |
| 20260509071541 | 55 | 181 | 1.7 | 1.7 | 0.00 | 0.00 | 0.00 | 70 | 1012.4 |
| 20260509071038 | 56 | 184 | 0.9 | 0.9 | 0.00 | 0.00 | 0.00 | 69 | 1012.1 |
| 20260509070536 | 56 | 152 | 0.0 | 0.0 | 0.00 | 0.00 | 0.00 | 70 | 1012.5 |
| 20260509070032 | 56 | 209 | 0.0 | 0.9 | 0.00 | 0.00 | 0.00 | 69 | 1012.2 |
| 20260509065527 | 56 | 202 | 0.9 | 1.7 | 0.00 | 0.00 | 0.00 | 69 | 1012.3 |
| 20260509065024 | 55 | 146 | 0.0 | 0.0 | 0.00 | 0.00 | 0.00 | 71 | 1012.2 |
| 20260509064521 | 55 | 147 | 0.0 | 0.0 | 0.00 | 0.00 | 0.00 | 71 | 1012.1 |
| 20260509064019 | 55 | 147 | 0.0 | 0.0 | 0.00 | 0.00 | 0.00 | 71 | 1012.3 |
| 20260509063514 | 54 | 147 | 0.0 | 0.0 | 0.00 | 0.00 | 0.00 | 72 | 1012.3 |
| 20260509063012 | 54 | 149 | 0.0 | 0.0 | 0.00 | 0.00 | 0.00 | 73 | 1012.1 |
| 20260509062509 | 53 | 140 | 0.0 | 0.0 | 0.00 | 0.00 | 0.00 | 75 | 1012.3 |
| 20260509062007 | 51 | 138 | 0.0 | 0.0 | 0.00 | 0.00 | 0.00 | 78 | 1012.1 |
| 20260509061504 | 51 | 138 | 0.0 | 0.0 | 0.00 | 0.00 | 0.00 | 78 | 1012.0 |
| 20260509061001 | 51 | 139 | 0.0 | 0.0 | 0.00 | 0.00 | 0.00 | 79 | 1012.1 |
| 20260509060458 | 51 | 139 | 0.0 | 0.0 | 0.00 | 0.00 | 0.00 | 80 | 1012.3 |